Location: Boiro
(42.6475°N, 8.8834°W)
Time: 03:12:50
(UTC+01:00)

Explorer 11/Cluster Stage 4 - Pass Details

Date: 01 December 2021
Orbit: 467 x 1255 km, 28.8° (Epoch: 20 January)

Event Time Altitude Azimuth Distance (km) Brightness Sun altitude
Rises 03:05:17 0° 196° (SSW) 3,604 - -60.4°
Reaches altitude 10° 03:10:59 10° 157° (SSE) 2,898 - -59.6°
Maximum altitude 03:11:59 10° 149° (SSE) 2,911 - -59.4°
Drops below altitude 10° 03:13:00 10° 141° (SE) 2,970 - -59.3°
Exits shadow 03:18:56 - 106° (ESE) 3,995 10.5 -58.4°
Sets 03:19:23 0° 104° (ESE) 4,107 10.6 -58.3°
